Change the Weather History Date:

Thursday, January 16, 2014

  Actual Average Record
Temperature  
Mean Temperature 40 °F 34 °F  
Max Temperature 52 °F 44 °F 72 °F (1952)
Min Temperature 28 °F 23 °F -10 °F (1977)
Degree Days  
Heating Degree Days 25 31  
Month to date heating degree days 566 496  
Since 1 July heating degree days 2323 2241  
Cooling Degree Days 0 0  
Month to date cooling degree days 0 0  
Year to date cooling degree days 0 0  
Moisture  
Dew Point 18 °F    
Average Humidity 60    
Maximum Humidity 92    
Minimum Humidity 28    
Precipitation  
Precipitation T in 0.07 in 1.13 in (1978)
Month to date precipitation 1.57 1.02  
Year to date precipitation 1.57 1.02  
Sea Level Pressure  
Sea Level Pressure 29.89 in    
Wind  
Wind Speed 11 mph (WSW)    
Max Wind Speed 24 mph    
Max Gust Speed 35 mph    
Visibility 10 miles    
Events Snow    
T = Trace of Precipitation, MM = Missing Value Source: NWS Daily Summary

Daily Weather History Graph

Daily Weather History Graph

Search for Another Location

Airport or City:

Trip Planner

Search our weather history database for the weather conditions in past years. The results will help you decide how hot, cold, wet, or windy it might be!

Date:

Astronomy

Jan. 16, 2014 Rise Set
Actual Time 7:19 AM CST 5:15 PM CST
Civil Twilight 6:51 AM CST 5:44 PM CST
Nautical Twilight 6:19 AM CST 6:15 PM CST
Astronomical Twilight 5:48 AM CST 6:47 PM CST
Moon 6:05 PM CST (1/16) 7:15 AM CST (1/16)
Length of Visible Light 10h 53m
Length of Day
9h 56m
Full, 100% of the Moon is Illuminated
Jan 16
Full
Jan 23
Last Quarter
Jan 30
New
Feb 6
First Quarter
Feb 14
Full

Hourly Weather History & Observations

Time (CST) Temp. Windchill Dew Point Humidity Pressure Visibility Wind Dir Wind Speed Gust Speed Precip Events Conditions
12:53 AM 28.9 °F 21.1 °F 7.0 °F 40% 29.98 in 10.0 mi South 8.1 mph - N/A   Overcast
1:53 AM 30.0 °F 23.2 °F 7.0 °F 38% 29.96 in 10.0 mi South 6.9 mph - N/A   Overcast
2:53 AM 32.0 °F 24.8 °F 9.0 °F 38% 29.94 in 10.0 mi South 8.1 mph - N/A   Overcast
3:53 AM 30.9 °F 21.2 °F 10.0 °F 42% 29.89 in 10.0 mi South 12.7 mph - N/A   Overcast
4:53 AM 32.0 °F 23.6 °F 12.0 °F 44% 29.87 in 10.0 mi South 10.4 mph - N/A   Overcast
5:53 AM 32.0 °F 26.4 °F 12.9 °F 45% 29.88 in 10.0 mi SSW 5.8 mph - N/A   Overcast
6:53 AM 30.9 °F 27.5 °F 14.0 °F 50% 29.88 in 10.0 mi WSW 3.5 mph - N/A   Scattered Clouds
7:53 AM 32.0 °F 24.2 °F 16.0 °F 52% 29.85 in 10.0 mi SSW 9.2 mph - N/A   Clear
8:53 AM 37.9 °F 30.9 °F 18.0 °F 45% 29.88 in 10.0 mi WSW 10.4 mph - N/A   Clear
9:53 AM 43.0 °F 36.4 °F 21.0 °F 42% 29.87 in 10.0 mi WSW 12.7 mph 20.7 mph N/A   Clear
10:53 AM 46.9 °F - 23.0 °F 39% 29.86 in - West 13.8 mph - N/A   Scattered Clouds
11:53 AM 51.1 °F - 25.0 °F 36% 29.83 in - North - - N/A   Clear
12:53 PM 48.0 °F - 19.9 °F 33% 29.81 in 10.0 mi WNW 15.0 mph 25.3 mph N/A   Overcast
1:53 PM 51.1 °F - 19.9 °F 29% 29.81 in 10.0 mi WNW 15.0 mph 32.2 mph N/A   Mostly Cloudy
2:53 PM 48.9 °F - 18.0 °F 29% 29.84 in 10.0 mi WNW 17.3 mph 26.5 mph N/A   Scattered Clouds
3:53 PM 46.9 °F - 16.0 °F 29% 29.86 in 10.0 mi WNW 13.8 mph 23.0 mph N/A   Overcast
4:53 PM 46.0 °F 39.0 °F 16.0 °F 30% 29.87 in 10.0 mi WNW 17.3 mph 25.3 mph N/A   Mostly Cloudy
5:53 PM 43.0 °F 36.4 °F 17.1 °F 35% 29.89 in 10.0 mi West 12.7 mph 19.6 mph N/A   Scattered Clouds
6:53 PM 37.9 °F 32.7 °F 25.0 °F 60% 29.90 in 10.0 mi West 6.9 mph - N/A   Clear
7:53 PM 37.9 °F 31.5 °F 24.1 °F 57% 29.91 in 10.0 mi West 9.2 mph 21.9 mph N/A   Mostly Cloudy
8:53 PM 36.0 °F 28.0 °F 27.0 °F 70% 29.92 in 10.0 mi NW 11.5 mph 19.6 mph N/A   Scattered Clouds
9:53 PM 33.1 °F 27.7 °F 30.0 °F 89% 29.93 in 10.0 mi WSW 5.8 mph - 0.00 in   Partly Cloudy
10:53 PM 30.9 °F 25.2 °F 28.0 °F 89% 29.92 in 10.0 mi West 5.8 mph - N/A   Clear
11:53 PM 33.1 °F 22.2 °F 24.1 °F 70% 29.93 in 9.0 mi NW 17.3 mph 29.9 mph 0.00 in Snow Light Snow